Showing default

EYECORE 1, 69011

AKA "EYCORE-1" on Space-Track | Orbit data source: Space-Track

EYECORE 1, 69011 is a Polish payload satellite in SSO that was launched on Sun, 03 May 2026 UTC via an FALCON 9 launch vehicle from the Air Force Western Test Range (AFWTR). Payload-class satellites include a variety of spacecraft equipped with specific instruments for various scientific and technological missions. These include communications satellites like Starlink; space stations such as the ISS; scientific satellites like the Hubble; Earth observation satellites from companies like Planet Labs, Umbra, and HawkEye 360; GPS; miniature CubeSats for education and research; and military/defense satellites.

Loading next visibility...
Identifier
69011, 2026-100AH
Orbit
SSO
Country
Flag of PLPL / POL
Related business
Manufacturer
NanoAvionics
Mission
Operational Commercial Radar Imaging
Bus & Motor
MP42, Unknown motor
Mass
200 kg wet, 200 kg dry
Launch date (UTC)
2026-05-03 (4 months ago)
Launch vehicle
FALCON 9
Launch site
Air Force Western Test Range (AFWTR)
Object type
Payload
Rocket body
Debris
Shape & HBR
Box + 2 Pan, 14.5 m
Radar Cross Section
0.688 m², Medium (>0.1 m² and < 1m²)

Expand to show TLE details & history
Last TLE update: 13 hours ago

TLE from 13 hours ago
0 EYECORE 1
1 69011U 26100AH  26237.62832329  .00003720  00000-0  17006-3 0  9990
2 69011  97.3953 134.2397 0005659 134.0935 226.0767 15.21156548 17369
Epoch: 2026-08-25T15:04Z
TLE epoch observation values (Epoch: 2026-08-25T15:04:47.132Z)
Latitude
-0.00004°
Longitude
-65.84962°
Altitude
508.146 km
Speed
7.608 km/s
True Right ascension
08h 56m 57s
True Declination
0° 00' 00"
Sunlit
Object was in daylight at epoch
Visualization orbit readout
Latitude
Unknown
Longitude
Unknown
Altitude
Unknown
Speed
Unknown
Apparent Right ascension
Unknown
Apparent Declination
Unknown
Sunlit
N/A
Visualization observer readout
Local Sidereal Time
19:48:01
Azimuth
Unknown
Elevation
Unknown
Doppler factor
Unknown
Orbital elements
Apogee altitude
503.207 km
Perigee altitude
495.423 km
Semi-major axis
6,877.452 km
Eccentricity
0.00057
Inclination
97.3953°
RAAN
134.2397°
Arg. of periapsis
134.0935°
True anomaly
226.03002°
Mean anomaly
226.0767°
Eccentric anomaly
226.05336°
Mean motion
3.80541 °/min
Orbital period
94.6 mins
BSTAR
0.00017006
Loading maneuver chart data...
Computing Atmospheric mass density...
Loading historical data...
Loading historical data...
Loading historical data...
Loading historical data...
Loading historical data...
Loading historical data...
Loading historical data...

Documentation

Showing up to 5 results
|